[[{"header":{"parameterUnit":"m.s-1","parameterCategory":1,"la1":30.2991,"la2":30.254,"lo1":-89.0895,"lo2":-89.0444,"dy":0.0017,"dx":0.0017,"nx":28,"ny":28,"refTime":"2025-11-20T09:00:00:Z","depth":0,"parameterNumber":2,"parameterNumberName":"U-component_of_WINDS"},"data":[0,0,0,0,0,0,0,0,0,0,0,0,0,0,0,0,0,0,0,0,0,0,0,0,0,0,0,0,0,0,0,0,0,0,0,0,0,0,0,0,0,0,0,0,0,0,0,0,0,0,0,0,0,0,0,0,0,0,-2.8346,-2.8346,0,-2.835,-2.835,-2.835,-2.831,-2.8309,-2.8308,-2.8307,-2.831,-2.8311,-2.8312,0,0,0,0,0,0,0,0,0,0,0,0,0,-2.8304,-2.8305,-2.8346,-2.8346,-2.8346,-2.835,-2.835,-2.835,-2.831,-2.8309,-2.8307,-2.8306,-2.831,-2.8311,-2.8312,0,0,0,0,0,0,0,0,0,0,0,0,0,-2.8316,-2.8305,-2.8346,-2.8327,-2.8325,-2.835,-2.835,-2.835,-2.831,-2.8309,-2.8307,-2.8306,-2.8309,-2.8311,-2.8312,-2.8355,0,0,-2.8317,-2.8318,0,0,0,0,0,0,0,0,-2.8316,-2.8318,-2.8329,-2.8328,-2.8326,-2.8328,-2.8336,-2.8352,-2.8311,-2.8316,-2.8307,-2.8305,-2.8317,-2.8318,-2.8322,-2.8355,-2.8356,-2.8318,-2.8319,-2.8319,-2.832,0,0,0,0,0,0,0,-2.8315,-2.8318,-2.8347,-2.833,-2.8328,-2.8318,-2.8318,-2.8339,-2.8326,-2.8315,-2.8312,-2.8313,-2.8316,-2.8321,-2.8322,-2.8356,-2.8317,-2.8319,-2.832,-2.8321,-2.8423,-2.8425,0,0,0,0,0,0,-2.8317,-2.8317,-2.8347,-2.8347,-2.8317,-2.832,-2.832,-2.8329,-2.8325,-2.8323,-2.8315,-2.8312,-2.8319,-2.832,-2.8322,-2.8371,-2.8319,-2.8321,-2.8322,-2.8422,-2.8424,-2.8426,0,0,0,0,0,0,-2.8316,-2.832,-2.8347,-2.8332,-2.8334,-2.8322,-2.8333,-2.833,-2.8334,-2.8325,-2.8322,-2.8322,-2.8317,-2.832,-2.8347,-2.837,-2.8322,-2.8323,-2.842,-2.8422,-2.8425,-2.847,0,0,0,0,0,0,-2.8315,-2.832,-2.8336,-2.8332,-2.8335,-2.8372,-2.8334,-2.8331,-2.8338,-2.8333,-2.8331,-2.8329,-2.8316,-2.8345,-2.8349,-2.8372,-2.8324,-2.8417,-2.8421,-2.8424,-2.8466,-2.8474,-2.848,0,0,0,0,0,-2.8314,-2.8349,-2.8337,-2.8341,-2.8355,-2.8374,-2.8375,-2.836,-2.834,-2.8356,-2.835,-2.8329,-2.8368,-2.8348,-2.8352,-2.8376,-2.8416,-2.842,-2.8424,-2.8463,-2.8472,-2.848,0,0,0,0,0,0,-2.8355,-2.8348,-2.8335,-2.837,-2.8373,-2.8367,-2.8387,-2.837,-2.8379,-2.8375,-2.8355,-2.8355,-2.8386,-2.8384,-2.8362,-2.8417,-2.8388,-2.8393,-2.8417,-2.8425,-2.8432,-2.8431,-2.8326,0,0,0,0,0,-2.8369,-2.8384,-2.8377,-2.8408,-2.8411,-2.8399,-2.8406,-2.8394,-2.8396,-2.8397,-2.8393,-2.8396,-2.8409,-2.8417,-2.8428,-2.8467,-2.8465,-2.8485,-2.8492,-2.8498,-2.8502,-2.8521,-2.8529,-2.8439,-2.8439,-2.8438,0,0,-2.8396,-2.8394,-2.8405,-2.8417,-2.8418,-2.8434,-2.84,-2.8419,-2.843,-2.84,-2.8425,-2.8423,-2.8425,-2.8457,-2.8472,-2.8457,-2.8527,-2.8503,-2.8507,-2.8508,-2.8525,-2.8534,-2.8542,-2.8441,-2.8441,-2.844,0,0,-2.8454,-2.8454,-2.848,-2.8482,-2.8484,-2.8476,-2.8482,-2.8479,-2.8476,-2.8501,-2.8479,-2.8493,-2.8515,-2.8517,-2.8521,-2.858,-2.8562,-2.8585,-2.862,-2.8639,-2.8646,-2.8652,-2.8672,-2.868,-2.8589,-2.8589,-2.8589,0,-2.8487,-2.8511,-2.8495,-2.8515,-2.8521,-2.8495,-2.852,-2.8523,-2.8529,-2.8533,-2.8517,-2.8544,-2.8544,-2.8576,-2.859,-2.8595,-2.8601,-2.8584,-2.8647,-2.8653,-2.8658,-2.8677,-2.8684,-2.8592,-2.8592,-2.8591,-2.8591,0,-2.8551,-2.8569,-2.8589,-2.8595,-2.8603,-2.8626,-2.8613,-2.8624,-2.8612,-2.8605,-2.8631,-2.863,-2.864,-2.8647,-2.8636,-2.8678,-2.8668,-2.865,-2.862,-2.867,-2.8687,-2.8694,-2.8596,-2.8595,-2.8594,-2.8593,0,0,-2.8634,-2.8631,-2.8639,-2.8641,-2.8642,-2.8654,-2.8676,-2.8686,-2.8695,-2.87,-2.8717,-2.8737,-2.872,-2.8724,-2.8713,-2.873,-2.8775,-2.8709,-2.8709,-2.872,-2.882,-2.8833,-2.8841,-2.8764,-2.8765,-2.8766,-2.882,0,-2.8689,-2.8725,-2.8712,-2.8749,-2.8764,-2.8741,-2.8759,-2.8762,-2.8757,-2.8769,-2.8763,-2.8777,-2.8754,-2.8756,-2.8772,-2.8766,-2.8795,-2.8763,-2.8778,-2.8779,-2.8777,-2.8851,-2.8864,-2.8914,-2.8826,-2.8828,-2.8828,0,-2.8757,-2.8765,-2.8804,-2.8801,-2.8807,-2.8824,-2.8832,-2.8845,-2.8847,-2.8842,-2.8848,-2.8832,-2.8853,-2.8825,-2.8853,-2.8832,-2.8838,-2.8836,-2.8838,-2.8837,-2.8805,-2.885,-2.893,-2.8937,-2.8839,-2.8838,-2.8837,0,-2.8811,-2.8832,-2.8857,-2.886,-2.8858,-2.8871,-2.8871,-2.8872,-2.8878,-2.8886,-2.889,-2.89,-2.8905,-2.8912,-2.89,-2.8881,-2.893,-2.8901,-2.8925,-2.8926,-2.8935,-2.8934,-2.9015,-2.8942,-2.8942,-2.8942,-2.8942,0,-2.8872,-2.8897,-2.8881,-2.8897,-2.8923,-2.8908,-2.8935,-2.8932,-2.8933,-2.8947,-2.8928,-2.8942,-2.8926,-2.8939,-2.893,-2.8954,-2.8956,-2.8952,-2.8949,-2.8953,-2.8953,-2.8955,-2.895,-2.8944,-2.8944,-2.8943,-2.8943,0,-2.8936,-2.8927,-2.8953,-2.895,-2.895,-2.8969,-2.8966,-2.898,-2.8974,-2.8993,-2.8996,-2.8987,-2.9,-2.899,-2.9003,-2.8997,-2.9028,-2.9021,-2.9027,-2.9024,-2.9049,-2.9046,-2.9132,-2.9142,-2.9065,-2.9066,-2.9066,0,-2.8975,-2.8993,-2.8992,-2.9,-2.9001,-2.9015,-2.9022,-2.9008,-2.9016,-2.902,-2.9034,-2.9046,-2.9054,-2.9077,-2.9071,-2.9082,-2.9073,-2.9103,-2.9075,-2.9078,-2.9072,-2.907,-2.9071,-2.9108,-2.9109,-2.911,-2.911,0,-2.9044,-2.9039,-2.9049,-2.9059,-2.9068,-2.9074,-2.9079,-2.9087,-2.9073,-2.9083,-2.9097,-2.9104,-2.9118,-2.9129,-2.9138,-2.9137,-2.9121,-2.912,-2.9125,-2.9128,-2.913,-2.9128,-2.9041,-2.9117,-2.9117,-2.9116,-2.9116,-2.9115,-2.9095,-2.911,-2.9111,-2.9124,-2.9126,-2.9131,-2.9144,-2.914,-2.9151,-2.9161,-2.9153,-2.9169,-2.9171,-2.918,-2.9182,-2.9194,-2.9182,-2.9191,-2.9193,-2.9195,-2.9197,-2.913,-2.9196,-2.9196,-2.9196,-2.9196,-2.9195,0,-2.9162,-2.9162,-2.9174,-2.9181,-2.9191,-2.9176,-2.9181,-2.919,-2.9205,-2.9208,-2.9217,-2.9232,-2.9244,-2.924,-2.925,-2.926,-2.9253,-2.9263,-2.9261,-2.9261,-2.9208,-2.9202,-2.9269,-2.9269,-2.9269,-2.9269,-2.9269,-2.9268,-2.9197,-2.9221,-2.9216,-2.9241,-2.924,-2.9256,-2.926,-2.9264,-2.9267,-2.9285,-2.9294,-2.9292,-2.9292,-2.9302,-2.9311,-2.931,-2.9314,-2.9326,-2.9322,-2.9272,-2.9265,-2.9258,-2.9251,-2.9327,-2.9327,-2.9373,-2.9373,-2.9373]},{"header":{"parameterUnit":"m.s-1","parameterCategory":1,"la1":30.2991,"la2":30.254,"lo1":-89.0895,"lo2":-89.0444,"dy":0.0017,"dx":0.0017,"nx":28,"ny":28,"refTime":"2025-11-20T09:00:00:Z","depth":0,"parameterNumber":3,"parameterNumberName":"V-component_of_WINDS"},"data":[0,0,0,0,0,0,0,0,0,0,0,0,0,0,0,0,0,0,0,0,0,0,0,0,0,0,0,0,0,0,0,0,0,0,0,0,0,0,0,0,0,0,0,0,0,0,0,0,0,0,0,0,0,0,0,0,0,0,1.6671,1.6672,0,1.6748,1.6749,1.675,1.677,1.677,1.6769,1.6769,1.6849,1.6852,1.6854,0,0,0,0,0,0,0,0,0,0,0,0,0,1.6543,1.6546,1.6671,1.6672,1.6673,1.6748,1.6749,1.675,1.677,1.677,1.6769,1.6769,1.6848,1.6851,1.6854,0,0,0,0,0,0,0,0,0,0,0,0,0,1.6608,1.6546,1.667,1.6692,1.6694,1.6748,1.6749,1.6751,1.677,1.677,1.6769,1.6768,1.6847,1.6851,1.6855,1.6893,0,0,1.6867,1.6868,0,0,0,0,0,0,0,0,1.6604,1.6612,1.6688,1.669,1.6693,1.6749,1.6734,1.6798,1.6771,1.6742,1.6769,1.6768,1.6816,1.6823,1.6839,1.6897,1.69,1.6867,1.6869,1.6871,1.6872,0,0,0,0,0,0,0,1.6599,1.6609,1.6701,1.6689,1.6692,1.6698,1.6707,1.6746,1.6782,1.6744,1.6746,1.6755,1.6818,1.6835,1.6841,1.6901,1.6867,1.687,1.6873,1.6874,1.6999,1.7,0,0,0,0,0,0,1.6591,1.6605,1.6699,1.6704,1.6646,1.6701,1.6711,1.6732,1.6782,1.6789,1.6755,1.6755,1.6829,1.6836,1.6844,1.6894,1.6871,1.6875,1.6877,1.6998,1.6999,1.7,0,0,0,0,0,0,1.6588,1.6599,1.6696,1.6655,1.6668,1.6704,1.6728,1.6734,1.6751,1.679,1.6797,1.6766,1.6829,1.6838,1.6882,1.6897,1.6876,1.688,1.6997,1.6998,1.7,1.6994,0,0,0,0,0,0,1.6584,1.6598,1.6612,1.6655,1.667,1.6731,1.6729,1.6736,1.6757,1.6758,1.6802,1.6808,1.6829,1.6876,1.6885,1.6902,1.6883,1.6996,1.6997,1.6999,1.6993,1.6995,1.6997,0,0,0,0,0,1.658,1.6606,1.6612,1.6624,1.6688,1.6732,1.674,1.6763,1.6758,1.6774,1.68,1.6807,1.6894,1.688,1.6891,1.6909,1.6995,1.6997,1.6999,1.6992,1.6995,1.6997,0,0,0,0,0,0,1.6563,1.6612,1.6619,1.6661,1.6692,1.6735,1.6754,1.6764,1.6798,1.6797,1.6824,1.6834,1.6876,1.6897,1.688,1.6951,1.6945,1.6949,1.6936,1.6939,1.6941,1.6935,1.6886,0,0,0,0,0,1.6565,1.6596,1.6637,1.667,1.6685,1.6717,1.6737,1.6752,1.6786,1.6799,1.6828,1.6861,1.6896,1.6918,1.6952,1.6997,1.7008,1.7015,1.7017,1.7019,1.7022,1.7051,1.7055,1.7008,1.7008,1.7007,0,0,1.6567,1.6598,1.6616,1.6667,1.6693,1.6726,1.6728,1.6762,1.6787,1.6804,1.6847,1.687,1.6909,1.6953,1.6974,1.6972,1.7038,1.7021,1.7022,1.7025,1.7054,1.7058,1.7062,1.7009,1.7009,1.7009,0,0,1.659,1.6615,1.6647,1.6673,1.6713,1.6735,1.6743,1.6785,1.6801,1.6845,1.6859,1.689,1.6949,1.6977,1.6999,1.7036,1.7046,1.7047,1.7057,1.7085,1.7089,1.7092,1.7108,1.7113,1.705,1.705,1.705,0,1.6588,1.6638,1.6661,1.6696,1.6719,1.6737,1.6771,1.6795,1.6844,1.6861,1.6858,1.6935,1.6962,1.7015,1.7024,1.7041,1.7052,1.7042,1.7086,1.709,1.7093,1.7109,1.7114,1.705,1.705,1.705,1.705,0,1.6635,1.667,1.669,1.6738,1.6764,1.6798,1.6828,1.6852,1.6865,1.6888,1.6935,1.6968,1.7011,1.7025,1.7037,1.7081,1.7079,1.708,1.7074,1.7098,1.7113,1.7118,1.705,1.705,1.705,1.705,0,0,1.6647,1.671,1.6718,1.6741,1.6788,1.6816,1.6852,1.6894,1.6915,1.6949,1.6981,1.7033,1.7036,1.7061,1.7077,1.7101,1.7132,1.7101,1.7102,1.7107,1.7185,1.7184,1.7191,1.7139,1.714,1.7141,1.7183,0,1.6677,1.674,1.6765,1.6818,1.6852,1.6871,1.6903,1.6936,1.6959,1.6992,1.7018,1.7055,1.7054,1.707,1.7095,1.7123,1.7148,1.712,1.7171,1.7172,1.7161,1.7198,1.7197,1.7234,1.7188,1.7189,1.719,0,1.6719,1.6755,1.6811,1.6857,1.6872,1.69,1.6943,1.6974,1.7013,1.7028,1.7058,1.7074,1.7115,1.7107,1.7164,1.7145,1.7167,1.7185,1.7187,1.7193,1.7183,1.7207,1.7247,1.7253,1.7199,1.7198,1.7198,0,1.6724,1.6787,1.683,1.6849,1.6903,1.6923,1.6946,1.6985,1.701,1.7048,1.7065,1.7107,1.713,1.7163,1.7191,1.7182,1.7248,1.7241,1.7263,1.7263,1.7276,1.7275,1.7322,1.7288,1.7288,1.7288,1.7288,0,1.6755,1.6789,1.6833,1.686,1.69,1.6929,1.6968,1.6993,1.7028,1.7061,1.708,1.7111,1.7146,1.7182,1.7204,1.725,1.726,1.7275,1.7281,1.7274,1.7272,1.729,1.7288,1.729,1.7289,1.7289,1.7289,0,1.6768,1.6798,1.6847,1.6895,1.6908,1.6936,1.6978,1.7006,1.7031,1.7073,1.7084,1.7124,1.7168,1.7199,1.7255,1.727,1.7321,1.7325,1.7307,1.7311,1.7332,1.733,1.7392,1.7403,1.7361,1.7361,1.7362,0,1.6786,1.6813,1.6865,1.6889,1.6913,1.695,1.6977,1.7007,1.7034,1.7083,1.7106,1.7151,1.7189,1.7259,1.7293,1.7337,1.7344,1.7363,1.7351,1.7344,1.7347,1.7346,1.735,1.7365,1.7365,1.7365,1.7366,0,1.6815,1.683,1.6867,1.6911,1.6942,1.6978,1.7014,1.7032,1.707,1.7099,1.7145,1.7174,1.7233,1.7279,1.7327,1.7353,1.7367,1.7369,1.7377,1.7371,1.736,1.7369,1.7314,1.7368,1.7367,1.7367,1.7367,1.7367,1.6832,1.6859,1.6901,1.6942,1.6973,1.7007,1.7037,1.7066,1.7105,1.7155,1.7171,1.7219,1.7262,1.7328,1.7355,1.7394,1.7393,1.7404,1.7407,1.7409,1.7411,1.7354,1.7403,1.7403,1.7403,1.7403,1.7403,0,1.6864,1.6893,1.6931,1.6982,1.7016,1.7026,1.7067,1.7095,1.7137,1.7176,1.7213,1.7268,1.7313,1.7352,1.74,1.7424,1.7432,1.7436,1.7435,1.7442,1.7407,1.7397,1.7429,1.7429,1.7429,1.7429,1.7429,1.7429,1.6885,1.6931,1.6952,1.7015,1.7043,1.709,1.7114,1.7147,1.7178,1.7237,1.7276,1.7301,1.7341,1.7392,1.7436,1.7446,1.7464,1.7467,1.7479,1.7446,1.7443,1.744,1.7431,1.747,1.747,1.751,1.7511,1.7511]}]]